Flag for U.S.A. Weather past 2 weeks in Lakewood, New Jersey, U.S.A.

Now
72 °F

Overcast.


Feels Like: 76 °F
Forecast: 54 / 68 °F
Wind: 3 mph from West

Location: Belmar-Farmdale

Current Time: May 5, 2015 at 11:35:50 PM

Latest Report: May 5, 2015 at 10:55 PM


Visibility: 10 mi

Pressure: 30.19 "Hg

Humidity: 57%

Dew point: 55 °F

Location of LakewoodLocation

Historic Weather in Lakewood — Graph

°F

Lakewood temperature yesterday

Maximum temperature yesterday: 84 °F (at 12:55 PM)
Minimum temperature yesterday: 54 °F (at 4:15 AM)
Average temperature yesterday: 70 °F

Past Weeks' High & Low Weather Summary

 TemperatureHumidityPressure
High84 °F (May 4, 12:55 PM)88% (Apr 20, 10:55 PM)30.24 "Hg (Apr 20, 10:55 PM)
Low34 °F (Apr 25, 4:15 AM)20% (May 4, 11:55 AM)29.55 "Hg (Apr 21, 1:55 AM)
Average55 °F50%29.86 "Hg
* Reported Apr 20 10:15 PM — May 5 10:35 PM, Lakewood, Weather by CustomWeather, © 2015

Note: Actual official high and low records may vary slightly from our data, if they occured in-between our weather recording intervals... More about our weather records

Advertising

Lakewood weather history for previous 24 hours

 ConditionsComfort  
Time TempWeatherWind HumidityBarometerVisibility
10:35 PM
Tue, May 5
72 °FOvercast.6 mph57%30.19 "Hg10 mi
10:15 PM72 °FOvercast.5 mph57%30.19 "Hg10 mi
9:55 PM72 °FOvercast.5 mph57%30.20 "Hg10 mi
9:35 PM72 °FMostly cloudy.8 mph57%30.19 "Hg10 mi
9:15 PM72 °FOvercast.5 mph57%30.18 "Hg10 mi
8:55 PM72 °FOvercast.5 mph57%30.18 "Hg10 mi
8:35 PM72 °FPartly sunny.No wind53%30.17 "Hg10 mi
8:15 PM72 °FPassing clouds.No wind53%30.17 "Hg10 mi
7:55 PM72 °FSunny.No wind53%30.16 "Hg10 mi
7:35 PM72 °FSunny.3 mph53%30.15 "Hg10 mi
7:15 PM73 °FPassing clouds.No wind50%30.15 "Hg10 mi
6:55 PM73 °FPassing clouds.3 mph50%30.15 "Hg10 mi
6:35 PM73 °FPassing clouds.7 mph50%30.15 "Hg10 mi
6:15 PM73 °FPassing clouds.8 mph47%30.15 "Hg10 mi
5:55 PM75 °FSunny.7 mph44%30.16 "Hg10 mi
5:15 PM73 °FScattered clouds.9 mph47%30.16 "Hg10 mi
4:55 PM73 °FPassing clouds.10 mph47%30.16 "Hg10 mi
4:35 PM77 °FPassing clouds.12 mph44%30.17 "Hg10 mi
4:15 PM79 °FScattered clouds.10 mph42%30.17 "Hg10 mi
3:55 PM79 °FScattered clouds.10 mph42%30.18 "Hg10 mi
3:35 PM79 °FPartly sunny.10 mph42%30.18 "Hg10 mi
3:15 PM79 °FPartly sunny.7 mph45%30.19 "Hg10 mi
2:55 PM82 °FScattered clouds.8 mph40%30.19 "Hg10 mi
2:35 PM82 °FPartly sunny.7 mph40%30.20 "Hg10 mi
2:15 PM81 °FScattered clouds.7 mph39%30.20 "Hg10 mi
1:55 PM82 °FSunny.10 mph40%30.20 "Hg10 mi
1:35 PM81 °FSunny.9 mph39%30.21 "Hg10 mi
1:15 PM81 °FSunny.3 mph39%30.21 "Hg10 mi
12:55 PM81 °FPassing clouds.5 mph39%30.22 "Hg10 mi
12:35 PM79 °FScattered clouds.3 mph42%30.22 "Hg10 mi
12:15 PM75 °FScattered clouds.3 mph47%30.23 "Hg10 mi
11:55 AM75 °FPartly sunny.3 mph47%30.24 "Hg10 mi
11:35 AM75 °FOvercast.8 mph47%30.24 "Hg10 mi
11:15 AM75 °FOvercast.9 mph47%30.24 "Hg10 mi
10:55 AM75 °FPartly sunny.5 mph47%30.23 "Hg10 mi
10:35 AM77 °FScattered clouds.6 mph44%30.23 "Hg10 mi
10:15 AM77 °FSunny.8 mph44%30.22 "Hg10 mi
9:55 AM75 °FSunny.No wind47%30.21 "Hg10 mi
9:35 AM73 °FSunny.8 mph47%30.21 "Hg10 mi
9:15 AM72 °FSunny.6 mph50%30.21 "Hg10 mi
8:55 AM72 °FSunny.10 mph50%30.22 "Hg10 mi
8:35 AM70 °FSunny.9 mph50%30.22 "Hg10 mi
8:15 AM68 °FSunny.12 mph53%30.21 "Hg10 mi
7:55 AM66 °FSunny.12 mph56%30.21 "Hg10 mi
7:35 AM64 °FSunny.9 mph56%30.20 "Hg10 mi
7:15 AM64 °FSunny.7 mph56%30.19 "Hg10 mi
6:55 AM63 °FSunny.7 mph56%30.19 "Hg10 mi
6:35 AM63 °FClear.8 mph56%30.18 "Hg10 mi
6:15 AM63 °FClear.7 mph56%30.18 "Hg10 mi
5:55 AM63 °FClear.8 mph56%30.17 "Hg10 mi
5:35 AM64 °FClear.8 mph52%30.17 "Hg10 mi
5:15 AM64 °FClear.8 mph52%30.17 "Hg10 mi
4:55 AM64 °FClear.9 mph52%30.17 "Hg10 mi
4:35 AM64 °FClear.7 mph52%30.17 "Hg10 mi
4:15 AM64 °FClear.8 mph49%30.17 "Hg10 mi
3:55 AM64 °FClear.9 mph49%30.17 "Hg10 mi
3:35 AM64 °FClear.10 mph49%30.17 "Hg10 mi
3:15 AM64 °FClear.8 mph49%30.17 "Hg10 mi
2:55 AM66 °FClear.8 mph46%30.17 "Hg10 mi
2:35 AM66 °FClear.8 mph43%30.18 "Hg10 mi
2:15 AM66 °FClear.10 mph43%30.18 "Hg10 mi
1:55 AM66 °FClear.9 mph43%30.18 "Hg10 mi
1:35 AM66 °FClear.9 mph43%30.19 "Hg10 mi
1:15 AM66 °FClear.10 mph43%30.19 "Hg10 mi
12:55 AM68 °FClear.9 mph40%30.19 "Hg10 mi
12:35 AM68 °FClear.12 mph40%30.20 "Hg10 mi
12:15 AM68 °FClear.9 mph40%30.20 "Hg10 mi
11:15 PM
Mon, May 4
70 °FClear.9 mph38%30.19 "Hg10 mi
Weather by CustomWeather, © 2015

See weather overviewHow to use our weather pages